www.pogodaiklimat.ru

Погода и климат >> Архив погоды >> Япония >> Oita


ПОГОДА в Oita

  • Прогноз погоды в Oita
  • Монитор погоды в Oita
  • Климат города

АРХИВ ПОГОДЫ в Oita

Время (UTC), дата Ветер
(напр.,м/с)
 
Видим.   Явления Облачность Т
(С)
Тd
(С)
f
(%)
Тe
(С)
Тes
(С)
Комфортность P
(гПа)
Po
(гПа)
Тmin
(С)
Tmax
(С)
R
(мм)
R24
(мм)
S
(см)
02 16.07 С 4 н/о н/о +31.2 +24.3 67 +43 +43 опасность
перегрева
1013.4 1011.9
01 16.07 С 3 н/о н/о +30.6 +23.8 67 +42 +42 опасность
перегрева
1013.4 1011.9
03 16.07 С 3 10 км 1/1
[Cu hum]
+33.0 +23.9 59 +45 +60 опасность
перегрева
1013.0 1011.5
04 16.07 СВ 3 н/о н/о +34.3 +23.7 54 +45 +45 опасность
перегрева
1012.7 1011.2
05 16.07 С 3 н/о н/о +33.8 +20.9 47 +41 +41 опасность
перегрева
1012.0 1010.5
06 16.07 С 4 25 км 1/1
[Cu hum Ac trans]
+33.8 +21.6 49 +42 +51 опасность
перегрева
1011.6 1010.1
08 16.07 СЗ 5 н/о н/о +30.1 +25.0 74 +43 +43 опасность
перегрева
1011.4 1009.9
07 16.07 СЗ 5 н/о н/о +30.9 +24.6 69 +44 +44 опасность
перегрева
1011.6 1010.1
09 16.07 С 2 20 км 1/1
[Sc]
+29.3 +25.1 78 +42 +44 опасность
перегрева
1011.2 1009.7
10 16.07 С 2 н/о н/о +27.8 +24.5 82 +39 +39 очень
душно
1011.7 1010.2
11 16.07 С 2 н/о н/о +27.2 +24.5 85 +38 +38 очень
душно
1012.1 1010.6
12 16.07 СЗ 2 20 км 1/1
[Sc]
+27.4 +23.9 81 +38 +38 очень
душно
1012.6 1011.1 +34.7
14 16.07 ЮЗ 2 н/о н/о +27.8 +22.5 73 +37 +37 очень
душно
1012.4 1010.9
13 16.07 С 1 н/о н/о +27.9 +24.1 80 +39 +39 очень
душно
1012.8 1011.3
15 16.07 Ю 2 н/о н/о +27.0 +22.6 77 +36 +36 очень
душно
1012.4 1010.9
16 16.07 Ю 2 н/о н/о +26.5 +22.6 79 +35 +35 очень
душно
1012.4 1010.9
17 16.07 Ю 2 н/о н/о +26.2 +22.7 81 +35 +35 очень
душно
1012.4 1010.9
18 16.07 Ю 2 20 км 1/1 <50 м
[St]
+25.7 +22.4 82 +34 +34 очень
душно
1012.6 1011.1
20 16.07 Ю 2 н/о н/о +24.9 +22.4 86 +33 +33 очень
душно
1013.0 1011.5
19 16.07 Ю 2 н/о н/о +25.3 +22.4 84 +33 +33 очень
душно
1012.6 1011.1
21 16.07 Ю 2 15 км 3/0
[Ci fib]
+25.0 +22.7 87 +33 +33 очень
душно
1013.2 1011.7
22 16.07 Ю 2 н/о н/о +26.5 +22.4 78 +35 +35 очень
душно
1013.5 1012.0
23 16.07 Ю 1 н/о н/о +28.1 +22.6 72 +37 +37 очень
душно
1013.6 1012.1
00 17.07 В 2 15 км 4/1
[Cu hum Ci fib]
+29.8 +22.5 65 +39 +48 очень
душно
1013.0 1011.5 +24.6
02 17.07 С 3 н/о н/о +31.6 +23.2 61 +42 +42 опасность
перегрева
1012.5 1011.0
01 17.07 С 3 н/о н/о +31.2 +23.1 62 +41 +41 опасность
перегрева
1012.8 1011.3
03 17.07 С 4 15 км 3/1
[Cu hum Ci fib]
+32.3 +22.7 57 +42 +55 опасность
перегрева
1012.1 1010.6
04 17.07 СВ 3 н/о н/о +33.4 +22.5 53 +43 +43 опасность
перегрева
1011.8 1010.3
05 17.07 С 4 н/о н/о +33.5 +21.3 49 +41 +41 опасность
перегрева
1011.6 1010.1
06 17.07 С 3 15 км 4/1
[Cu hum Ci fib]
+33.8 +21.6 49 +42 +52 опасность
перегрева
1011.3 1009.8
08 17.07 С 4 н/о н/о +31.8 +22.8 59 +42 +42 опасность
перегрева
1010.8 1009.3
07 17.07 СЗ 4 н/о н/о +32.1 +22.2 56 +41 +41 опасность
перегрева
1010.9 1009.4
09 17.07 С 4 20 км 5/1
[Cu hum Ac trans Ci fib]
+29.7 +24.1 72 +41 +42 опасность
перегрева
1010.7 1009.2
10 17.07 С 3 н/о н/о +28.4 +24.6 80 +40 +40 очень
душно
1010.7 1009.2
11 17.07 С 3 н/о н/о +27.3 +25.1 88 +39 +39 очень
душно
1011.2 1009.7
12 17.07 С 1 20 км 9/1
[Cu hum Ac trans Ci fib]
+27.6 +24.9 85 +39 +39 очень
душно
1011.6 1010.1 +34.2
14 17.07 ЮЗ 2 н/о н/о +27.7 +23.3 77 +37 +37 очень
душно
1011.8 1010.3
13 17.07 СВ 1 н/о н/о +27.9 +24.8 83 +40 +40 очень
душно
1011.7 1010.2
15 17.07 Ю 3 н/о н/о +27.2 +23.5 80 +37 +37 очень
душно
1011.8 1010.3
16 17.07 ЮЗ 2 н/о н/о +27.0 +23.3 80 +36 +36 очень
душно
1011.6 1010.1
17 17.07 Ю 2 н/о н/о +26.3 +23.0 82 +35 +35 очень
душно
1011.8 1010.3
18 17.07 Ю 2 20 км 9/3
[Sc Ci fib]
+26.0 +22.7 82 +34 +34 очень
душно
1012.0 1010.5
20 17.07 Ю 2 н/о н/о +25.1 +22.0 83 +32 +32 очень
душно
1012.4 1010.9
19 17.07 Ю 3 н/о н/о +25.4 +22.3 83 +33 +33 очень
душно
1012.1 1010.6
21 17.07 Ю 2 15 км 8/1
[Cu hum Ac trans Ci sp]
+25.0 +21.7 82 +32 +32 очень
душно
1012.4 1010.9
22 17.07 Ю 2 н/о н/о +26.3 +21.9 77 +34 +34 очень
душно
1012.4 1010.9
23 17.07 Ю 2 н/о н/о +27.8 +22.3 72 +36 +36 очень
душно
1012.3 1010.8
00 18.07 ЮВ 2 15 км 8/1
[Cu hum Ci fib]
+29.3 +22.3 66 +38 +47 очень
душно
1012.2 1010.7 +24.9
02 18.07 С 3 н/о н/о +32.3 +23.0 58 +42 +42 опасность
перегрева
1011.9 1010.4
01 18.07 С 3 н/о н/о +30.4 +22.6 63 +40 +40 очень
душно
1012.1 1010.6
03 18.07 С 3 15 км 9/1
[Cu hum Ci fib]
+32.6 +21.5 52 +41 +53 опасность
перегрева
1011.7 1010.2
04 18.07 С 3 н/о н/о +33.6 +21.1 48 +41 +41 опасность
перегрева
1011.2 1009.7
05 18.07 С 3 н/о н/о +33.6 +23.0 54 +44 +44 опасность
перегрева
1010.9 1009.4
06 18.07 С 3 20 км 9/0
[Ci sp]
+33.1 +22.9 55 +43 +53 опасность
перегрева
1010.5 1009.0
08 18.07 С 2 н/о н/о +32.6 +23.0 57 +43 +43 опасность
перегрева
1009.6 1008.1
07 18.07 С 3 н/о н/о +33.5 +22.6 53 +43 +43 опасность
перегрева
1010.1 1008.6
09 18.07 СЗ 3 15 км 9/1
[Cu hum Ci sp]
+31.2 +23.8 65 +43 +44 опасность
перегрева
1009.7 1008.2
10 18.07 В 2 н/о н/о +32.5 +21.4 52 +40 +40 очень
душно
1009.9 1008.4
11 18.07 СЗ 2 н/о н/о +29.6 +24.9 76 +42 +42 опасность
перегрева
1009.9 1008.4
12 18.07 С 1 10 км 6/0
[Ci fib]
+29.9 +23.4 68 +40 +40 очень
душно
1010.5 1009.0 +34.4
14 18.07 С 1 н/о н/о +28.4 +24.6 80 +40 +40 очень
душно
1010.8 1009.3
13 18.07 СВ 1 н/о н/о +29.4 +24.1 73 +41 +41 опасность
перегрева
1010.7 1009.2
15 18.07 Ю 2 н/о н/о +28.3 +23.2 74 +38 +38 очень
душно
1010.5 1009.0
16 18.07 Ю 3 н/о н/о +27.6 +23.2 77 +37 +37 очень
душно
1010.2 1008.7
17 18.07 Ю 2 н/о н/о +27.3 +23.1 78 +37 +37 очень
душно
1010.1 1008.6
18 18.07 Ю 2 10 км 3/1
[Cu hum Ci fib]
+27.3 +23.1 78 +37 +37 очень
душно
1010.2 1008.7
20 18.07 Ю 2 н/о н/о +26.2 +22.9 82 +35 +35 очень
душно
1010.9 1009.4
19 18.07 Ю 2 н/о н/о +26.7 +22.8 79 +35 +35 очень
душно
1010.4 1008.9
21 18.07 Ю 3 15 км ясно +26.2 +23.1 83 +35 +35 очень
душно
1011.3 1009.8
22 18.07 Ю 2 н/о н/о +27.2 +23.0 78 +36 +36 очень
душно
1011.4 1009.9
23 18.07 ЮВ 2 н/о н/о +29.5 +23.7 71 +40 +40 очень
душно
1011.5 1010.0
00 19.07 В 2 15 км 1/1
[Cu hum]
+30.6 +23.3 65 +41 +52 опасность
перегрева
1011.3 1009.8 +26.1
02 19.07 С 3 н/о н/о +32.7 +23.1 57 +43 +43 опасность
перегрева
1011.0 1009.5
01 19.07 С 3 н/о н/о +31.7 +23.3 61 +42 +42 опасность
перегрева
1011.3 1009.8
03 19.07 СЗ 3 15 км 1/1
[Cu med, cong]
+33.6 +24.8 60 +47 +62 опасность
перегрева
1010.5 1009.0
04 19.07 С 4 н/о н/о +33.4 +24.3 59 +46 +46 опасность
перегрева
1010.1 1008.6
05 19.07 СЗ 4 н/о н/о +33.7 +24.9 60 +47 +47 опасность
перегрева
1009.4 1007.9
06 19.07 С 3 15 км 1/1
[Cu med, cong]
+33.4 +24.6 60 +46 +56 опасность
перегрева
1009.1 1007.6
08 19.07 В 3 н/о н/о +33.7 +23.1 54 +44 +44 опасность
перегрева
1008.7 1007.2
07 19.07 СВ 3 н/о н/о +33.8 +24.7 59 +47 +47 опасность
перегрева
1008.8 1007.3
09 19.07 С 3 15 км 1/1
[Cu hum]
+31.5 +25.1 69 +45 +46 опасность
перегрева
1008.6 1007.1
10 19.07 С 2 н/о н/о +31.0 +24.6 69 +44 +44 опасность
перегрева
1008.7 1007.2
11 19.07 С 2 н/о н/о +30.4 +24.6 71 +43 +43 опасность
перегрева
1009.3 1007.8
12 19.07 Ю 2 15 км 1/1
[Cu hum]
+31.0 +24.2 67 +43 +43 опасность
перегрева
1009.9 1008.4 +34.5
14 19.07 Ю 2 н/о н/о +29.6 +24.3 73 +41 +41 опасность
перегрева
1010.1 1008.6
13 19.07 Ю 2 н/о н/о +30.5 +24.4 70 +43 +43 опасность
перегрева
1010.1 1008.6
15 19.07 Ю 2 н/о н/о +29.2 +24.1 74 +41 +41 опасность
перегрева
1009.7 1008.2
16 19.07 Ю 1 н/о н/о +29.1 +24.0 74 +40 +40 очень
душно
1009.5 1008.0
17 19.07 Ю 3 н/о н/о +28.3 +23.4 75 +38 +38 очень
душно
1009.2 1007.7
18 19.07 Ю 3 15 км 3/1
[Cu hum Ac trans]
+27.9 +23.1 75 +37 +37 очень
душно
1009.2 1007.7
20 19.07 Ю 2 н/о н/о +26.6 +23.7 84 +36 +36 очень
душно
1009.8 1008.3
19 19.07 Ю 2 н/о н/о +27.2 +23.5 80 +37 +37 очень
душно
1009.2 1007.7
21 19.07 Ю 2 15 км 1/0
[Ci fib]
+26.6 +23.5 83 +36 +36 очень
душно
1010.1 1008.6
22 19.07 Ю 2 н/о н/о +27.8 +23.4 77 +38 +38 очень
душно
1010.2 1008.7
23 19.07 Ю 2 н/о н/о +28.8 +23.5 73 +39 +39 очень
душно
1010.6 1009.1
00 20.07 С 3 10 км 1/1
[Cu hum Ci sp]
+30.1 +25.2 75 +44 +53 опасность
перегрева
1010.5 1009.0 +26.4
02 20.07 СВ 3 н/о н/о +32.9 +23.8 59 +44 +44 опасность
перегрева
1009.7 1008.2
01 20.07 С 3 н/о н/о +30.8 +24.7 70 +44 +44 опасность
перегрева
1010.5 1009.0
03 20.07 СВ 4 10 км 3/1
[Cu med, cong Ci sp]
+32.9 +23.5 58 +44 +56 опасность
перегрева
1009.4 1007.9
04 20.07 В 4 н/о н/о +33.6 +23.9 57 +45 +45 опасность
перегрева
1008.9 1007.4
05 20.07 ЮВ 5 н/о н/о +31.3 +23.9 65 +43 +43 опасность
перегрева
1009.4 1007.9
06 20.07 ЮВ 7 10 км {ливн. осадки} 8/8
[Cu Sc Ci sp]
+32.6 +24.6 63 +46 +46 опасность
перегрева
1009.2 1007.7 0.0
08 20.07 В 6 н/о н/о +32.5 +24.5 63 +45 +45 опасность
перегрева
1009.7 1008.2
07 20.07 ЮВ 4 н/о н/о +33.6 +24.2 58 +46 +46 опасность
перегрева
1009.2 1007.7
09 20.07 ЮВ 4 30 км в посл. час ливневой дождь 9/5
[Cu Sc Ac trans Ci sp]
+31.1 +24.0 66 +43 +43 опасность
перегрева
1009.6 1008.1
10 20.07 ЮВ 4 н/о н/о +30.2 +24.6 72 +43 +43 опасность
перегрева
1010.1 1008.6
11 20.07 Ю 5 н/о н/о +29.2 +23.6 72 +40 +40 очень
душно
1010.3 1008.8
12 20.07 Ю 3 30 км {ливн. осадки} 3/1
[Cu med, cong Ci sp]
+28.6 +23.7 75 +39 +39 очень
душно
1010.8 1009.3 +34.2 0.0
14 20.07 Ю 2 н/о н/о +28.2 +24.2 79 +39 +39 очень
душно
1011.4 1009.9
13 20.07 Ю 1 н/о н/о +28.3 +24.1 78 +39 +39 очень
душно
1011.2 1009.7
15 20.07 Ю 2 н/о н/о +28.1 +24.1 79 +39 +39 очень
душно
1011.2 1009.7
16 20.07 ЮВ 4 н/о н/о +27.6 +24.5 83 +39 +39 очень
душно
1011.0 1009.5
17 20.07 Ю 2 н/о н/о +26.9 +24.4 86 +38 +38 очень
душно
1010.2 1008.7
18 20.07 Ю 2 20 км {ливн. осадки} 9/3
[Cu med, cong Ac trans Ci sp]
+26.5 +24.4 88 +37 +37 очень
душно
1009.9 1008.4 0.0
20 20.07 ЮВ 1 н/о н/о +26.9 +24.2 85 +37 +37 очень
душно
1010.3 1008.8
19 20.07 Ю 2 н/о н/о +26.7 +24.2 86 +37 +37 очень
душно
1010.2 1008.7
21 20.07 Ю 2 20 км 6/3
[Cu Sc Ci sp]
+26.8 +24.1 85 +37 +37 очень
душно
1010.7 1009.2
22 20.07 В 2 н/о н/о +27.6 +24.1 81 +38 +38 очень
душно
1010.9 1009.4
23 20.07 Ю 2 н/о н/о +28.9 +24.2 76 +40 +40 очень
душно
1010.9 1009.4
00 21.07 ЮВ 3 25 км 8/6
[Cu med, cong Ac trans Ci sp]
+30.4 +24.3 70 +42 +45 опасность
перегрева
1011.2 1009.7 +26.5 0.0
02 21.07 Ю 4 н/о н/о +29.8 +25.8 79 +44 +44 опасность
перегрева
1011.2 1009.7
01 21.07 ЮВ 5 н/о н/о +26.0 +24.8 93 +37 +37 очень
душно
1011.9 1010.4
03 21.07 Ю 3 25 км {ливн. осадки} 9/1
[Cu med, cong Ac trans Ci sp]
+30.8 +25.6 74 +45 +54 опасность
перегрева
1010.9 1009.4
04 21.07 ЮВ 6 н/о н/о +32.0 +24.1 63 +44 +44 опасность
перегрева
1010.7 1009.2
05 21.07 В 5 н/о н/о +31.8 +24.4 65 +44 +44 опасность
перегрева
1010.3 1008.8
06 21.07 ЮВ 5 25 км {ливн. осадки} 9/3
[Cu med, cong Ac trans Ci sp]
+31.8 +24.9 67 +45 +48 опасность
перегрева
1010.2 1008.7 9
08 21.07 ЮВ 5 н/о н/о +30.4 +24.6 71 +43 +43 опасность
перегрева
1010.2 1008.7
07 21.07 ЮВ 5 н/о н/о +31.9 +24.8 66 +45 +45 опасность
перегрева
1010.1 1008.6
09 21.07 ЮВ 5 20 км в посл. час ливневой дождь 9/3
[Cu med, cong Ac trans Ci sp]
+30.3 +24.7 72 +43 +43 опасность
перегрева
1010.3 1008.8
10 21.07 ЮВ 3 н/о н/о +29.5 +24.6 75 +42 +42 опасность
перегрева
1010.9 1009.4
11 21.07 ЮВ 3 н/о н/о +29.0 +24.3 76 +41 +41 опасность
перегрева
1011.0 1009.5
12 21.07 Ю 3 20 км {ливн. осадки} 6/3
[Sc diur, vesp Ci sp]
+28.4 +24.0 77 +39 +39 очень
душно
1011.0 1009.5 +33.0 9
14 21.07 Ю 2 н/о н/о +28.1 +23.9 78 +39 +39 очень
душно
1011.0 1009.5
13 21.07 ЮВ 2 н/о н/о +28.5 +23.9 76 +39 +39 очень
душно
1011.1 1009.6
15 21.07 ЮВ 2 н/о н/о +28.0 +24.4 81 +39 +39 очень
душно
1010.5 1009.0
16 21.07 ЮВ 2 н/о н/о +27.6 +24.7 84 +39 +39 очень
душно
1010.1 1008.6
17 21.07 Ю 2 н/о н/о +27.6 +24.5 83 +39 +39 очень
душно
1009.9 1008.4
18 21.07 Ю 2 20 км зарница 9/8
[Cb cap Ac trans Ci sp]
+27.9 +24.5 82 +39 +39 очень
душно
1010.3 1008.8
20 21.07 В 1 н/о н/о +27.1 +25.1 89 +39 +39 очень
душно
1009.6 1008.1
19 21.07 В 1 н/о н/о +27.6 +24.9 85 +39 +39 очень
душно
1009.8 1008.3
21 21.07 В 2 20 км {ливн. осадки} 9/8
[Cu Sc Ac trans Ci sp]
+27.8 +25.2 86 +40 +41 очень
душно
1010.3 1008.8
22 21.07 В 2 н/о н/о +27.9 +25.2 85 +40 +40 очень
душно
1010.8 1009.3
23 21.07 ЮВ 3 н/о н/о +28.5 +25.1 82 +41 +41 опасность
перегрева
1011.1 1009.6
00 22.07 Ю 2 10 км в посл. час ливневой дождь 9/8
[Cu med, cong Ac trans Ci sp]
+28.6 +25.8 85 +43 +44 опасность
перегрева
1011.1 1009.6 +26.9 0.0
02 22.07 ЮВ 3 н/о н/о +30.7 +25.8 75 +46 +46 опасность
перегрева
1010.9 1009.4
01 22.07 Ю 2 н/о н/о +29.9 +25.4 77 +44 +44 опасность
перегрева
1010.8 1009.3
03 22.07 Ю 5 10 км слабый ливневой дождь 9/6
[Cu med, cong Ac trans Ci sp]
+30.9 +25.5 73 +45 +48 опасность
перегрева
1010.8 1009.3
04 22.07 ЮВ 3 н/о н/о +31.9 +26.0 71 +47 +47 опасность
перегрева
1010.2 1008.7
05 22.07 ЮВ 5 н/о н/о +32.9 +25.2 64 +47 +47 опасность
перегрева
1009.7 1008.2
06 22.07 Ю 5 20 км {ливн. осадки} 9/6
[Cu med, cong Ac trans Ci sp]
+33.3 +25.3 63 +48 +49 опасность
перегрева
1009.2 1007.7 0.0
08 22.07 Ю 6 н/о н/о +31.3 +25.4 71 +46 +46 опасность
перегрева
1009.4 1007.9
07 22.07 Ю 6 н/о н/о +32.7 +25.3 65 +47 +47 опасность
перегрева
1009.1 1007.6
09 22.07 Ю 4 20 км зарница 9/6
[Cb cap Ac trans Ci sp]
+30.7 +25.5 74 +45 +45 опасность
перегрева
1009.7 1008.2
10 22.07 Ю 3 н/о н/о +30.3 +25.4 75 +44 +44 опасность
перегрева
1009.9 1008.4
11 22.07 Ю 2 н/о н/о +29.6 +25.6 79 +44 +44 опасность
перегрева
1010.6 1009.1
12 22.07 СЗ 3 20 км {ливн. осадки} 9/1
[Cu med, cong Ac trans Ci sp]
+28.5 +25.1 82 +41 +41 опасность
перегрева
1010.8 1009.3 +33.7 0.0
14 22.07 Ю 1 н/о н/о +28.0 +25.6 87 +41 +41 опасность
перегрева
1010.4 1008.9
13 22.07 З 1 н/о н/о +28.1 +25.3 85 +41 +41 опасность
перегрева
1010.7 1009.2
15 22.07 СЗ 2 н/о н/о +27.2 +25.6 91 +40 +40 очень
душно
1010.0 1008.5
16 22.07 СВ 1 н/о н/о +27.1 +25.3 90 +39 +39 очень
душно
1010.1 1008.6
17 22.07 СЗ 1 н/о н/о +27.0 +25.2 90 +39 +39 очень
душно
1009.7 1008.2
18 22.07 Ю 2 20 км 8/1
[Cu hum Ac trans]
+26.8 +25.4 92 +39 +39 очень
душно
1009.6 1008.1
20 22.07 Ю 2 н/о н/о +26.6 +25.0 91 +38 +38 очень
душно
1010.1 1008.6
19 22.07 ЮЗ 1 н/о н/о +26.7 +25.1 91 +38 +38 очень
душно
1009.8 1008.3
21 22.07 Ю 1 30 км 9/3
[Cu Sc Ac trans Ci fib]
+26.8 +25.2 91 +39 +39 очень
душно
1010.1 1008.6
22 22.07 С 2 н/о н/о +26.9 +25.1 90 +39 +39 очень
душно
1010.5 1009.0
23 22.07 С 2 н/о н/о +27.8 +25.4 87 +41 +41 опасность
перегрева
1010.6 1009.1
00 23.07 С 3 20 км 9/1
[Cu med, cong Ac trans Ci fib]
+29.3 +25.3 79 +43 +48 опасность
перегрева
1010.5 1009.0 +26.4

 

Местоположение метеостанции Oita (Япония): широта 33.23 долгота 131.61 высота над уровнем моря 13 м.

В архиве по умолчанию представлена погода в Oita за последнюю неделю. Архивные данные за месяц целиком и за предыдущие месяцы, начиная с января 2011 года, Вы можете получить, выбрав интересующий диапазон дат из раскрывающегося списка и нажав кнопку "Ввод!".


*Определитесь, кто Вы:
робот инопланетянин человек

Внимание! Время в таблицах - всемирное. Для получения местного времени необходимо прибавить поправку, которая в Oita равна 9 ч.

Смотрите также архив погоды в соседних городах и на ближайших метеорологических станциях:

Погода в Hita (Япония) (64 км)
Погода в Aso-San (Япония) (64 км)
Погода в Nobeoka (Япония) (72 км)
Погода в Uwajima (Япония) (87 км)
Погода в Kumamoto (Япония) (97 км)
Погода в Iizuka (Япония) (97 км)
Погода в Shimonoseki (Япония) (102 км)
Погода в Yamaguchi (Япония) (106 км)
Погода в Sukumo (Япония) (107 км)
Погода в Fukuoka (Япония) (121 км)

Пояснения к столбцам:

Ветер - указаны скорость ветра в м/с - средняя за 10 мин, порывы в срок и между сроками (в фигурных скобках) и направление, откуда дует ветер: С - северный, СВ - северо-восточный, В - восточный, ЮВ - юго-восточный, Ю - южный, ЮЗ - юго-западный, З - западный, СЗ - северо-западный.
Видимость - горизонтальная дальность видимости в метрах или километрах. При видимости от 1 до 10 км при отсутствии осадков обычно наблюдается дымка, при ухудшении видимости до 1 км и менее - туман. В сухую погоду видимость может ухудшаться дымом, пылью или мглою.
Явления - указаны атмосферные явления, наблюдавшиеся в срок или в последний час перед сроком; фигурными скобками обозначены явления, наблюдавшиеся между сроками (за 1-3 часа до срока); квадратными скобками обозначены град или гололедные отложения с указанием их диаметра в мм.
Облачность - указаны через наклонную черту общая и нижняя облачность в баллах и высота нижней границы облаков в метрах; квадратными скобками обозначены формы облаков: Ci - перистые, Cs - перисто-слоистые, Cc - перисто-кучевые, Ac - высококучевые, As - высокослоистые, Sc - слоисто-кучевые, Ns - слоисто-дождевые, Cu - кучевые, Cb - кучево-дождевые. Подробнее классификацию облаков см. в Атласе облаков (PDF).
T - Температура воздуха - температура, измеренная на высоте 2 м над землей.
Td - Температура точки росы - температура, при понижении до которой содержащийся в воздухе водяной пар достигнет насыщения.
f - Относительная влажность воздуха - влажноcть воздуха, измеренная на высоте 2 м над землей.
Te - Эффективная температура - температура, которую ощущает одетый по сезону человек в тени. Характеристика душности погоды. При расчете учитывается влияние влажности воздуха и скорости ветра на теплоощущения человека.
Tes - Эффективная температура на солнце - температура, которую ощущает человек, с поправкой на солнечный нагрев. Характеристика знойности погоды. Зависит от высоты солнца над горизонтом, облачности и скорости ветра. Ночью, в пасмурную погоду, а также при ветре 12 м/с и более поправка равна нулю.
P - Атмосферное давление - приведенное к уровню моря атмосферное давление.
Po - Атмосферное давление - измеренное на уровне метеостанции атмосферное давление.
Tmin - Минимальная температура - минимум температуры воздуха на высоте 2 м над землей.
Tmax - Максимальная температура - максимум температуры воздуха на высоте 2 м над землей.
R - Количество осадков - Количество выпавших осадков за период времени, мм. При наведении курсора мыши на число - период времени, за который выпало указанное количество осадков.
R24 - Количество осадков - Количество выпавших осадков за 24 часа, мм.
S - Снежный покров - Высота снежного покрова, см. При наведении курсора мыши на число - состояние снежного покрова и степень покрытия местности в баллах.